FENGYUN 1C DEB, 30217

Orbit data source: Space-Track

FENGYUN 1C DEB, 30217 is space debris in SSO originally from a launch on Mon, 10 May 1999 UTC launched from the Taiyaun Space Center, China (TSC). Fengyun 1C debris stems from the Chinese weather satellite Fengyun-1C, which was intentionally destroyed by a Chinese anti-satellite missile in 2007. This event dramatically increased the amount of space debris, with thousands of trackable fragments posing hazards to satellites and human spaceflight. The Fengyun 1C debris cloud has become a focal point in discussions about space sustainability and the need for international regulations to prevent the creation of new debris.

Loading next visibility...
Identifier
30217, 1999-025WA
Orbit
SSO
Country
Flag of CNCN / PRC
Related business
Manufacturer
Unknown
Mission
Spacecraft
Bus & Motor
Unknown
Mass
Unknown
Launch date (UTC)
1999-05-10 (27 years ago)
Launch vehicle
Unknown
Launch site
Taiyaun Space Center, China (TSC)
Object type
Payload
Rocket body
Debris
Shape & HBR
Unknown shape, 0.1 m
Radar Cross Section
Small (<0.1 m²)

Expand to show TLE details & history
Last TLE update: 19 hours ago

TLE from 19 hours ago
0 FENGYUN 1C DEB
1 30217U 99025WA  25347.42699405  .00000916  00000-0  37002-3 0  9999
2 30217  98.4312 331.1705 0140696  97.8304 263.8874 14.24835768980833
Epoch: 2025-12-13T10:14Z
TLE epoch observation values (Epoch: 2025-12-13T10:14:52.285Z)
Latitude
-0.00005°
Longitude
95.09823°
Altitude
824.149 km
Speed
7.435 km/s
True Right ascension
22h 04m 40s
True Declination
0° 00' 00"
Sunlit
Object was in daylight at epoch
Visualization orbit readout
Latitude
Unknown
Longitude
Unknown
Altitude
Unknown
Speed
Unknown
Apparent Right ascension
Unknown
Apparent Declination
Unknown
Sunlit
N/A
Visualization observer readout
Local Sidereal Time
03:38:45
Azimuth
Unknown
Elevation
Unknown
Doppler factor
Unknown
Orbital elements
Apogee altitude
907.264 km
Perigee altitude
705.102 km
Semi-major axis
7,184.32 km
Eccentricity
0.01407
Inclination
98.4312°
RAAN
331.1705°
Arg. of periapsis
97.8304°
True anomaly
262.28751°
Mean anomaly
263.8874°
Eccentric anomaly
263.08713°
Mean motion
3.56422 °/min
Orbital period
101 mins
BSTAR
0.00037002
Loading maneuver chart data...
Computing Atmospheric mass density...

Documentation

Showing up to 5 results
|